Home   Weather   Charlottetown   Past weeks

Flag for Canada Past Weather in Charlottetown, Prince Edward Island, Canada — Yesterday and Last 2 Weeks

Now
61 °F

Scattered clouds.


Feels Like: 61 °F
Forecast: 57 / 72 °F
Wind: 10 mph from West

Location: Charlottetown

Current Time: Jun 29, 2017 at 9:26:55 am

Latest Report: Jun 29, 2017 at 9:04 am


Visibility: 15 mi

Pressure: 30.02 "Hg

Humidity: 83%

Dew Point: 55 °F

Location of CharlottetownLocation

Past Weather in Charlottetown — Graph

°F

Charlottetown Temperature Yesterday

Maximum temperature yesterday: 70 °F (at 4:00 pm)
Minimum temperature yesterday: 57 °F (at 5:00 am)
Average temperature yesterday: 63 °F

High & Low Weather Summary for the Past Weeks

 TemperatureHumidityPressure
High79 °F (Jun 19, 5:00 pm)100% (Jun 16, 4:00 am)30.25 "Hg (Jun 16, 4:00 am)
Low37 °F (Jun 16, 6:00 am)36% (Jun 23, 4:00 pm)29.43 "Hg (Jun 24, 1:55 pm)
Average63 °F79%29.89 "Hg
* Reported Jun 14 8:00 am — Jun 29 8:00 am, Charlottetown. Weather by CustomWeather, © 2017

Note: Actual official high and low records may vary slightly from our data, if they occured in-between our weather recording intervals... More about our weather records

Advertising

Charlottetown Weather History for the Previous 24 Hours

Scroll right to see more
 ConditionsComfort  
Time TempWeatherWind HumidityBarometerVisibility
8:00 am
Thu, Jun 29
59 °FPartly sunny.10 mph88%30.01 "Hg15 mi
7:48 am59 °FScattered clouds.9 mph88%30.00 "Hg15 mi
7:00 am57 °FPassing clouds.7 mph88%29.99 "Hg15 mi
6:00 am55 °FPassing clouds.8 mph88%29.96 "Hg15 mi
5:00 am54 °FPassing clouds.9 mph94%29.95 "Hg15 mi
4:00 am55 °FPassing clouds.8 mph88%29.93 "Hg15 mi
3:00 am55 °FPassing clouds.10 mph94%29.93 "Hg15 mi
2:00 am57 °FPassing clouds.8 mph88%29.92 "Hg15 mi
1:00 am57 °FPassing clouds.8 mph88%29.92 "Hg15 mi
12:00 am59 °FPassing clouds.8 mph82%29.90 "Hg15 mi
11:00 pm
Wed, Jun 28
59 °FPassing clouds.6 mph82%29.90 "Hg15 mi
10:00 pm61 °FPassing clouds.5 mph77%29.90 "Hg15 mi
9:00 pm64 °FScattered clouds.10 mph73%29.88 "Hg15 mi
8:00 pm64 °FScattered clouds.7 mph73%29.88 "Hg15 mi
7:31 pm63 °FBroken clouds.7 mph77%29.88 "Hg15 mi
7:00 pm63 °FThunderstorms. Partly sunny.15 mph77%29.90 "Hg15 mi
6:44 pm64 °FThunderstorms. Partly sunny.9 mph78%29.87 "Hg15 mi
6:07 pm68 °FThunderstorms. Broken clouds.8 mph64%29.85 "Hg15 mi
5:00 pm70 °FPassing clouds.10 mph60%29.86 "Hg15 mi
4:00 pm70 °FScattered clouds.14 mph57%29.88 "Hg15 mi
3:00 pm68 °FScattered clouds.16 mph60%29.89 "Hg15 mi
2:00 pm68 °FScattered clouds.13 mph64%29.90 "Hg15 mi
1:26 pm64 °FScattered clouds.10 mph73%29.92 "Hg15 mi
12:13 pm64 °FBroken clouds.12 mph64%29.93 "Hg15 mi
11:00 am63 °FCloudy.12 mph68%29.95 "Hg15 mi
10:00 am61 °FOvercast.10 mph77%29.95 "Hg15 mi
9:00 am61 °FOvercast.8 mph72%29.97 "Hg15 mi
Weather by CustomWeather, © 2017

See weather overviewHow to use our weather pages